Location: Chippewa Lake
(41.0698°N, 81.9010°W)
Time: 02:01:40
(UTC+00:00)

PSLV R/B - Pass Details

Date: 09 May 2021
Orbit: 594 x 628 km, 98.0° (Epoch: 24 June)

Event Time Altitude Azimuth Distance (km) Brightness Sun altitude
Rises 09:26:30 0° 15° (NNE) 2,843 7.8 -9.0°
Reaches altitude 10° 09:28:41 10° 19° (NNE) 1,936 6.9 -8.6°
Maximum altitude 09:32:52 66° 102° (ESE) 655 3.9 -7.9°
Drops below altitude 10° 09:37:01 10° 184° (S) 1,928 5.8 -7.3°
Sets 09:39:11 0° 187° (S) 2,829 6.6 -6.9°
